Location: Sungai Bunut
(2.6333°N, 113.7333°E)
Time: 20:29:35
(UTC+00:00)

Vanguard 1 Rocket - Visible Passes

Search period start: 06 December 2023 00:00
Search period end: 16 December 2023 00:00
Orbit: 655 x 4218 km, 34.3° (Epoch: 05 December)

Date Brightness Start Highest point End Pass type
(mag) Time Alt. Az. Time Alt. Az. Time Alt. Az.
06 Dec 11.1 14:15:41 10° SSW 14:30:22 28° SE 14:34:23 27° SE visible
06 Dec 10.9 16:41:07 10° SW 17:17:16 40° ENE 17:28:54 10° ENE visible
06 Dec 10.4 19:34:41 55° WNW 19:37:56 57° NW 19:57:56 10° NE visible
06 Dec 10.8 21:55:58 10° WNW 22:11:55 22° NNW 22:23:05 10° NNE visible
07 Dec 11.3 13:05:46 10° S 13:14:41 16° SSE 13:25:07 11° ESE visible
07 Dec 10.7 15:28:38 10° SSW 16:11:10 13° ENE 16:12:48 10° ENE visible
07 Dec 10.5 17:56:52 10° WSW 18:28:33 61° NNE 18:45:03 10° NE visible
07 Dec 10.7 20:45:56 26° WNW 20:56:02 34° NNW 21:11:46 10° NNE visible
08 Dec 10.9 14:17:12 10° SSW 14:32:37 34° SE 14:33:13 34° SE visible
08 Dec 11.0 16:42:55 10° SW 17:22:06 32° ENE 17:31:01 10° NE visible
08 Dec 10.5 19:39:26 48° NW 19:39:51 48° NW 19:59:43 10° NE visible
08 Dec 10.9 22:00:43 10° WNW 22:15:03 20° NNW 22:25:23 10° NNE visible
09 Dec 11.1 13:07:00 10° S 13:17:30 20° SE 13:24:26 17° ESE visible
09 Dec 10.6 15:30:17 10° SW 16:15:23 10° ENE 15:41:34 45° SSW visible
09 Dec 10.7 18:32:43 49° NNE 18:32:43 49° NNE 18:46:51 10° NE visible
09 Dec 10.8 20:50:02 24° WNW 20:58:41 29° NNW 21:13:47 10° NNE visible
10 Dec 10.6 14:18:44 10° SSW 14:32:57 41° SSE 14:32:57 41° SSE visible
10 Dec 11.1 16:44:52 10° SW 17:25:47 27° NE 17:32:55 10° NE visible
10 Dec 10.6 19:43:05 41° NNW 19:43:05 41° NNW 20:01:32 10° NE visible
11 Dec 10.9 13:08:19 10° SSW 13:19:54 25° SE 13:24:27 23° ESE visible
11 Dec 10.6 15:32:03 10° SW 16:18:41 - ENE 15:41:36 43° SSW visible
11 Dec 10.8 18:35:59 41° NNE 18:35:59 41° NNE 18:48:34 10° NE visible
11 Dec 10.9 20:53:16 21° NW 21:01:40 26° NNW 21:15:58 10° NNE visible
12 Dec 11.1 12:00:22 10° SSE 12:05:28 12° SE 12:11:40 10° ESE visible
12 Dec 10.4 14:20:23 10° SSW 14:33:13 47° SSE 14:33:13 47° SSE visible
12 Dec 11.2 16:47:01 10° WSW 17:28:45 24° NE 17:34:40 10° NE visible
12 Dec 10.8 19:46:01 35° NNW 19:46:01 35° NNW 20:03:26 10° NNE visible
13 Dec 10.6 13:09:45 10° SSW 13:21:58 31° SE 13:24:55 30° SE visible
13 Dec 10.6 15:33:58 10° SW 16:21:24 - NE 15:42:05 40° SW visible
13 Dec 11.0 18:38:40 35° NNE 18:38:40 35° NNE 18:50:16 10° NE visible
13 Dec 11.0 20:55:56 19° NW 21:05:01 23° NNW 21:18:30 10° NNE visible
14 Dec 10.9 12:00:43 10° S 12:08:04 16° SE 12:16:41 11° ESE visible
14 Dec 10.2 14:22:07 10° SW 14:33:52 54° S 14:33:52 54° S visible
14 Dec 11.4 16:49:24 10° WSW 17:31:14 21° NE 17:36:18 10° NE visible
14 Dec 10.9 19:48:29 31° NNW 19:48:29 31° NNW 20:05:30 10° NNE visible
15 Dec 10.4 13:11:16 10° SSW 13:23:47 38° SE 13:25:44 38° SE visible
15 Dec 10.7 15:36:02 10° SW 16:23:43 - NE 15:42:55 36° WSW visible
15 Dec 11.1 18:40:57 31° NNE 18:40:57 31° NNE 18:52:01 10° NE visible
15 Dec 11.1 20:58:13 16° NW 21:08:37 22° NNW 21:21:28 10° NNE visible
